RYR6YV LIME-EPMO

Flight info

Callsign RYR6YV
Flight time 1h 31m
Altitude 18000
Route LEGLO L615 OSKOR/N0337F190 L615 NEVNI/N0428F340 DCT TAGIP DCT GOGEM DCT LENIZ/N0431F350 DCT MEBEK DCT NENUM DCT BEPAS DCT OKL DCT LAGAR DCT DINOV/N0377F270 T871 GODLO DCT VAGSA DCT LUNUK DCT OKENO DCT GOGUS
Aircraft B38M/M-SADE3FGILRWY/SB1

Departure

Time 2026-05-06 20:59
Airport Il Caravaggio International Airport (LIME)

Arrival

Time 2026-05-06 22:30
Airport Warsaw Modlin Airport (EPMO)
Time Latitude Longitude Altitude Speed Heading
2026-05-06 20:15 45.66749 9.69564 789 ft 0 kts 194°
2026-05-06 20:49 45.66756 9.69567 789 ft 3 kts 194°
2026-05-06 20:49 45.66774 9.69573 789 ft 3 kts 194°
2026-05-06 20:49 45.66787 9.69577 789 ft 0 kts 194°
2026-05-06 20:50 45.66800 9.69582 789 ft 3 kts 194°
2026-05-06 20:50 45.66816 9.69588 788 ft 2 kts 194°
2026-05-06 20:50 45.66817 9.69588 788 ft 0 kts 194°
2026-05-06 20:51 45.66812 9.69586 788 ft 2 kts 194°
2026-05-06 20:51 45.66793 9.69579 789 ft 4 kts 194°
2026-05-06 20:52 45.66762 9.69568 789 ft 6 kts 194°
2026-05-06 20:52 45.66717 9.69552 789 ft 8 kts 194°
2026-05-06 20:52 45.66659 9.69532 790 ft 9 kts 194°
2026-05-06 20:52 45.66618 9.69529 790 ft 0 kts 143°
2026-05-06 20:53 45.66617 9.69533 790 ft 1 kts 111°
2026-05-06 20:53 45.66620 9.69538 790 ft 1 kts 50°
2026-05-06 20:53 45.66633 9.69538 790 ft 5 kts
2026-05-06 20:53 45.66697 9.69547 789 ft 11 kts 18°
2026-05-06 20:54 45.66773 9.69582 789 ft 12 kts 28°
2026-05-06 20:54 45.66793 9.69695 788 ft 14 kts 94°
2026-05-06 20:54 45.66771 9.69841 787 ft 17 kts 104°
2026-05-06 20:54 45.66741 9.70012 785 ft 19 kts 104°
2026-05-06 20:55 45.66704 9.70215 784 ft 22 kts 104°
2026-05-06 20:55 45.66663 9.70440 782 ft 25 kts 104°
2026-05-06 20:55 45.66615 9.70692 780 ft 28 kts 105°
2026-05-06 20:55 45.66565 9.70962 778 ft 29 kts 105°
2026-05-06 20:56 45.66498 9.71243 775 ft 31 kts 105°
2026-05-06 20:56 45.66450 9.71505 773 ft 27 kts 104°
2026-05-06 20:56 45.66463 9.71757 770 ft 25 kts 75°
2026-05-06 20:56 45.66476 9.71825 770 ft 2 kts 73°
2026-05-06 20:57 45.66484 9.71851 769 ft 4 kts 64°
2026-05-06 20:57 45.66508 9.71894 768 ft 6 kts 34°
2026-05-06 20:57 45.66537 9.71898 769 ft 0 kts 340°
2026-05-06 20:57 45.66539 9.71897 769 ft 0 kts 340°
2026-05-06 20:58 45.66560 9.71870 770 ft 9 kts 301°
2026-05-06 20:58 45.66599 9.71670 771 ft 49 kts 284°
2026-05-06 20:58 45.66761 9.70804 777 ft 129 kts 285°
2026-05-06 20:58 45.67059 9.69296 945 ft 177 kts 287°
2026-05-06 20:59 45.67435 9.67551 1630 ft 188 kts 285°
2026-05-06 20:59 45.67524 9.65694 2498 ft 188 kts 260°
2026-05-06 20:59 45.66945 9.64072 3441 ft 181 kts 227°
2026-05-06 20:59 45.66000 9.62883 4315 ft 184 kts 216°
2026-05-06 21:00 45.64960 9.61698 4976 ft 200 kts 219°
2026-05-06 21:00 45.63843 9.60343 5564 ft 220 kts 220°
2026-05-06 21:00 45.62637 9.59027 6606 ft 212 kts 214°
2026-05-06 21:00 45.61450 9.57771 7538 ft 217 kts 218°
2026-05-06 21:01 45.60263 9.56381 8305 ft 223 kts 220°
2026-05-06 21:01 45.59051 9.54995 9186 ft 225 kts 208°
2026-05-06 21:01 45.57561 9.54402 10025 ft 225 kts 180°
2026-05-06 21:01 45.56040 9.54939 10799 ft 231 kts 150°
2026-05-06 21:02 45.54899 9.56550 11568 ft 237 kts 120°
2026-05-06 21:02 45.54525 9.58824 12277 ft 246 kts 86°
2026-05-06 21:02 45.55118 9.61143 12970 ft 253 kts 51°
2026-05-06 21:02 45.56359 9.62888 13663 ft 257 kts 45°
2026-05-06 21:03 45.57568 9.64799 14369 ft 261 kts 50°
2026-05-06 21:03 45.58764 9.66765 15090 ft 264 kts 49°
2026-05-06 21:03 45.59983 9.68755 15784 ft 268 kts 49°
2026-05-06 21:03 45.61223 9.70773 16469 ft 272 kts 49°
2026-05-06 21:04 45.62477 9.72809 17139 ft 275 kts 49°
2026-05-06 21:04 45.63746 9.74873 17768 ft 279 kts 51°
2026-05-06 21:04 45.64743 9.77299 18098 ft 291 kts 77°
2026-05-06 21:04 45.64963 9.80204 18398 ft 302 kts 94°
2026-05-06 21:05 45.64969 9.83307 18661 ft 321 kts 92°
2026-05-06 21:05 45.64984 9.86600 18872 ft 341 kts 92°
2026-05-06 21:05 45.64988 9.90096 18903 ft 362 kts 92°
2026-05-06 21:05 45.64983 9.93777 18912 ft 379 kts 92°
2026-05-06 21:06 45.64973 9.97613 18934 ft 392 kts 92°
2026-05-06 21:06 45.64960 10.01541 18943 ft 398 kts 92°
2026-05-06 21:06 45.64949 10.04215 18956 ft 400 kts 92°
2026-05-06 21:06 45.64933 10.08133 18974 ft 400 kts 92°
2026-05-06 21:07 45.64920 10.12175 19089 ft 404 kts 92°
2026-05-06 21:07 45.64913 10.16183 19743 ft 404 kts 92°
2026-05-06 21:07 45.64904 10.20208 20296 ft 409 kts 92°
2026-05-06 21:07 45.64894 10.24240 20831 ft 413 kts 92°
2026-05-06 21:08 45.64882 10.28354 21377 ft 416 kts 93°
2026-05-06 21:08 45.64868 10.32519 21887 ft 421 kts 93°
2026-05-06 21:08 45.65052 10.36705 22383 ft 427 kts 80°
2026-05-06 21:08 45.66071 10.40713 22936 ft 433 kts 62°
2026-05-06 21:09 45.67875 10.44169 23371 ft 440 kts 44°
2026-05-06 21:09 45.70252 10.46928 23880 ft 442 kts 36°
2026-05-06 21:09 45.72779 10.49489 24277 ft 448 kts 34°
2026-05-06 21:09 45.75365 10.52005 24777 ft 450 kts 33°
2026-05-06 21:10 45.77973 10.54499 25226 ft 454 kts 33°
2026-05-06 21:10 45.80616 10.56999 25665 ft 456 kts 33°
2026-05-06 21:10 45.83285 10.59510 26106 ft 460 kts 32°
2026-05-06 21:10 45.85965 10.62032 26533 ft 463 kts 33°
2026-05-06 21:11 45.88662 10.64570 26926 ft 466 kts 32°
2026-05-06 21:11 45.91374 10.67125 27333 ft 468 kts 32°
2026-05-06 21:11 45.94169 10.69554 27702 ft 471 kts 26°
2026-05-06 21:11 45.97096 10.71686 28081 ft 473 kts 26°
2026-05-06 21:12 46.00030 10.73874 28452 ft 476 kts 26°
2026-05-06 21:12 46.02973 10.76092 28808 ft 479 kts 27°
2026-05-06 21:12 46.05926 10.78330 29149 ft 481 kts 27°
2026-05-06 21:12 46.08888 10.80580 29467 ft 484 kts 27°
2026-05-06 21:13 46.11869 10.82848 29791 ft 486 kts 26°
2026-05-06 21:13 46.14861 10.85128 30152 ft 488 kts 27°
2026-05-06 21:13 46.17877 10.87427 30439 ft 491 kts 27°
2026-05-06 21:13 46.20899 10.89735 30766 ft 493 kts 27°
2026-05-06 21:14 46.23939 10.92060 31078 ft 495 kts 27°
2026-05-06 21:14 46.26980 10.94389 31374 ft 497 kts 27°
2026-05-06 21:14 46.30040 10.96734 31685 ft 498 kts 27°
2026-05-06 21:14 46.33096 10.99080 32135 ft 496 kts 27°
2026-05-06 21:15 46.36135 11.01415 32547 ft 494 kts 27°
2026-05-06 21:15 46.39172 11.03752 32926 ft 493 kts 27°
2026-05-06 21:15 46.42164 11.06057 33311 ft 492 kts 27°
2026-05-06 21:15 46.45182 11.08386 33692 ft 491 kts 27°
2026-05-06 21:16 46.48206 11.10722 33933 ft 493 kts 27°
2026-05-06 21:16 46.54239 11.15390 33935 ft 489 kts 27°
2026-05-06 21:17 46.60234 11.20042 33951 ft 489 kts 27°
2026-05-06 21:17 46.66239 11.24713 33933 ft 488 kts 27°
2026-05-06 21:18 46.72228 11.29383 33923 ft 489 kts 27°
2026-05-06 21:18 46.78220 11.34068 33927 ft 488 kts 27°
2026-05-06 21:19 46.84204 11.38758 33923 ft 488 kts 27°
2026-05-06 21:19 46.90186 11.43459 33918 ft 488 kts 27°
2026-05-06 21:20 46.96166 11.48167 33914 ft 488 kts 27°
2026-05-06 21:20 47.02338 11.52164 34172 ft 483 kts
2026-05-06 21:20 47.05656 11.52685 34561 ft 479 kts
2026-05-06 21:21 47.08995 11.53004 34806 ft 481 kts
2026-05-06 21:21 47.12335 11.53269 34919 ft 481 kts
2026-05-06 21:21 47.15674 11.53505 34909 ft 480 kts
2026-05-06 21:22 47.22338 11.53951 34886 ft 479 kts
2026-05-06 21:22 47.28995 11.54385 34890 ft 479 kts
2026-05-06 21:23 47.35611 11.54814 34878 ft 479 kts
2026-05-06 21:23 47.42267 11.55248 34887 ft 479 kts
2026-05-06 21:24 47.48961 11.55684 34891 ft 479 kts
2026-05-06 21:24 47.55571 11.56116 34903 ft 478 kts
2026-05-06 21:25 47.62192 11.56863 34841 ft 481 kts 13°
2026-05-06 21:25 47.65299 11.58641 34920 ft 478 kts 29°
2026-05-06 21:25 47.68001 11.61547 34952 ft 482 kts 44°
2026-05-06 21:26 47.72592 11.68773 34909 ft 482 kts 49°
2026-05-06 21:26 47.77039 11.76232 34910 ft 482 kts 49°
2026-05-06 21:27 47.81440 11.83767 34906 ft 482 kts 50°
2026-05-06 21:27 47.85819 11.91309 34901 ft 481 kts 50°
2026-05-06 21:28 47.90191 11.98860 34899 ft 481 kts 50°
2026-05-06 21:28 47.94556 12.06419 34906 ft 481 kts 50°
2026-05-06 21:29 47.98918 12.13996 34912 ft 481 kts 50°
2026-05-06 21:29 48.03270 12.21576 34917 ft 482 kts 50°
2026-05-06 21:30 48.07624 12.29181 34916 ft 481 kts 50°
2026-05-06 21:30 48.11950 12.36759 34914 ft 481 kts 50°
2026-05-06 21:31 48.16296 12.44394 34914 ft 482 kts 50°
2026-05-06 21:31 48.20644 12.52050 34916 ft 482 kts 50°
2026-05-06 21:32 48.25312 12.59195 34936 ft 480 kts 38°
2026-05-06 21:32 48.33082 12.68810 34918 ft 482 kts 40°
2026-05-06 21:33 48.38240 12.75230 34913 ft 482 kts 40°
2026-05-06 21:33 48.43397 12.81666 34907 ft 482 kts 40°
2026-05-06 21:34 48.48551 12.88115 34907 ft 481 kts 40°
2026-05-06 21:34 48.53678 12.94604 34895 ft 481 kts 44°
2026-05-06 21:35 48.58388 13.01791 34911 ft 482 kts 46°
2026-05-06 21:35 48.63027 13.08980 34892 ft 481 kts 46°
2026-05-06 21:36 48.67701 13.16252 34891 ft 482 kts 46°
2026-05-06 21:36 48.72368 13.23534 34878 ft 482 kts 46°
2026-05-06 21:37 48.77019 13.30813 34877 ft 482 kts 46°
2026-05-06 21:37 48.81676 13.38120 34868 ft 482 kts 46°
2026-05-06 21:38 48.86190 13.45222 34855 ft 482 kts 46°
2026-05-06 21:38 48.91310 13.51660 34809 ft 478 kts 24°
2026-05-06 21:39 48.97440 13.55582 34801 ft 480 kts 21°
2026-05-06 21:39 49.03610 13.59460 34861 ft 481 kts 21°
2026-05-06 21:40 49.09804 13.63302 34841 ft 480 kts 21°
2026-05-06 21:40 49.15992 13.67144 34843 ft 480 kts 21°
2026-05-06 21:41 49.22178 13.70996 34850 ft 480 kts 21°
2026-05-06 21:41 49.28369 13.74861 34843 ft 480 kts 21°
2026-05-06 21:42 49.34557 13.78735 34837 ft 480 kts 21°
2026-05-06 21:42 49.40744 13.82618 34819 ft 480 kts 21°
2026-05-06 21:43 49.46926 13.86510 34833 ft 480 kts 21°
2026-05-06 21:43 49.53102 13.90408 34815 ft 480 kts 21°
2026-05-06 21:44 49.59237 13.94290 34830 ft 480 kts 21°
2026-05-06 21:44 49.65426 13.98217 34815 ft 480 kts 21°
2026-05-06 21:45 49.71601 14.02147 34834 ft 480 kts 21°
2026-05-06 21:45 49.77774 14.06086 34805 ft 479 kts 21°
2026-05-06 21:46 49.83949 14.10038 34828 ft 480 kts 21°
2026-05-06 21:46 49.90071 14.13966 34805 ft 480 kts 21°
2026-05-06 21:47 49.96258 14.17947 34809 ft 480 kts 21°
2026-05-06 21:47 50.02428 14.21926 34803 ft 480 kts 21°
2026-05-06 21:48 50.08405 14.25935 34774 ft 481 kts 29°
2026-05-06 21:48 50.11109 14.29149 34766 ft 477 kts 45°
2026-05-06 21:48 50.13478 14.32773 34801 ft 480 kts 44°
2026-05-06 21:49 50.18279 14.40017 34809 ft 481 kts 45°
2026-05-06 21:49 50.23045 14.47381 34807 ft 481 kts 45°
2026-05-06 21:50 50.27791 14.54761 34803 ft 482 kts 45°
2026-05-06 21:50 50.32491 14.62096 34801 ft 482 kts 45°
2026-05-06 21:51 50.36481 14.68339 34805 ft 482 kts 45°
2026-05-06 21:51 50.42020 14.77031 34795 ft 482 kts 45°
2026-05-06 21:52 50.45949 14.83216 34794 ft 482 kts 45°
2026-05-06 21:52 50.51236 14.91561 34792 ft 483 kts 45°
2026-05-06 21:53 50.55939 14.99010 34796 ft 483 kts 45°
2026-05-06 21:53 50.60669 15.06523 34792 ft 483 kts 45°
2026-05-06 21:54 50.64616 15.12812 34803 ft 483 kts 45°
2026-05-06 21:54 50.69335 15.20349 34796 ft 483 kts 45°
2026-05-06 21:55 50.74053 15.27905 34796 ft 483 kts 45°
2026-05-06 21:55 50.78597 15.35706 34750 ft 482 kts 58°
2026-05-06 21:56 50.80052 15.40425 34771 ft 478 kts 73°
2026-05-06 21:56 50.81058 15.45367 34796 ft 481 kts 73°
2026-05-06 21:56 50.83043 15.55461 34798 ft 481 kts 75°
2026-05-06 21:57 50.84952 15.65606 34789 ft 481 kts 75°
2026-05-06 21:57 50.86840 15.75767 34795 ft 481 kts 75°
2026-05-06 21:58 50.88720 15.85937 34795 ft 481 kts 75°
2026-05-06 21:58 50.90590 15.96120 34796 ft 481 kts 75°
2026-05-06 21:59 50.92628 16.06203 34751 ft 482 kts 64°
2026-05-06 21:59 50.96139 16.15219 34746 ft 483 kts 59°
2026-05-06 22:00 50.99572 16.24352 34792 ft 483 kts 59°
2026-05-06 22:00 51.03004 16.33520 34804 ft 482 kts 59°
2026-05-06 22:01 51.06425 16.42690 34806 ft 482 kts 59°
2026-05-06 22:01 51.09836 16.51864 34799 ft 482 kts 59°
2026-05-06 22:02 51.13243 16.61065 34809 ft 482 kts 60°
2026-05-06 22:02 51.16638 16.70265 34807 ft 482 kts 60°
2026-05-06 22:03 51.20026 16.79477 34811 ft 482 kts 60°
2026-05-06 22:03 51.23381 16.88632 34102 ft 477 kts 60°
2026-05-06 22:04 51.25057 16.93224 33261 ft 480 kts 60°
2026-05-06 22:04 51.26732 16.97817 32665 ft 478 kts 60°
2026-05-06 22:04 51.28390 17.02373 32343 ft 483 kts 60°
2026-05-06 22:04 51.30077 17.07014 32070 ft 484 kts 60°
2026-05-06 22:05 51.31767 17.11676 31746 ft 484 kts 60°
2026-05-06 22:05 51.33453 17.16332 31407 ft 485 kts 60°
2026-05-06 22:05 51.35143 17.21006 31084 ft 485 kts 60°
2026-05-06 22:05 51.36828 17.25679 30742 ft 485 kts 61°
2026-05-06 22:06 51.38513 17.30359 30414 ft 486 kts 61°
2026-05-06 22:06 51.40199 17.35050 30088 ft 486 kts 61°
2026-05-06 22:06 51.41886 17.39750 29759 ft 486 kts 61°
2026-05-06 22:06 51.43571 17.44458 29410 ft 487 kts 61°
2026-05-06 22:07 51.45255 17.49167 29072 ft 488 kts 61°
2026-05-06 22:07 51.46941 17.53894 28710 ft 488 kts 61°
2026-05-06 22:07 51.48627 17.58635 28366 ft 489 kts 61°
2026-05-06 22:07 51.50313 17.63373 28026 ft 489 kts 61°
2026-05-06 22:08 51.51997 17.68121 27689 ft 490 kts 61°
2026-05-06 22:08 51.53686 17.72889 27346 ft 491 kts 61°
2026-05-06 22:08 51.55372 17.77660 27006 ft 491 kts 61°
2026-05-06 22:08 51.57057 17.82438 26665 ft 492 kts 61°
2026-05-06 22:09 51.58743 17.87223 26335 ft 492 kts 61°
2026-05-06 22:09 51.60408 17.91961 25980 ft 479 kts 61°
2026-05-06 22:09 51.62015 17.96541 25628 ft 467 kts 61°
2026-05-06 22:09 51.63597 18.01058 25267 ft 456 kts 61°
2026-05-06 22:10 51.65138 18.05466 24893 ft 454 kts 61°
2026-05-06 22:10 51.66701 18.09945 24444 ft 462 kts 62°
2026-05-06 22:10 51.68280 18.14478 23991 ft 465 kts 62°
2026-05-06 22:10 51.69860 18.19022 23515 ft 464 kts 62°
2026-05-06 22:11 51.71422 18.23523 23013 ft 460 kts 62°
2026-05-06 22:11 51.72978 18.28013 22676 ft 458 kts 62°
2026-05-06 22:11 51.74530 18.32499 22377 ft 456 kts 62°
2026-05-06 22:11 51.76070 18.36960 22091 ft 454 kts 62°
2026-05-06 22:12 51.77603 18.41408 21810 ft 452 kts 62°
2026-05-06 22:12 51.79126 18.45837 21526 ft 450 kts 62°
2026-05-06 22:12 51.80644 18.50256 21242 ft 449 kts 62°
2026-05-06 22:12 51.82152 18.54654 20961 ft 447 kts 62°
2026-05-06 22:13 51.83650 18.59033 20682 ft 445 kts 62°
2026-05-06 22:13 51.85124 18.63347 20403 ft 443 kts 62°
2026-05-06 22:13 51.86610 18.67703 20115 ft 442 kts 62°
2026-05-06 22:13 51.88086 18.72040 19847 ft 440 kts 62°
2026-05-06 22:14 51.89560 18.76377 19565 ft 438 kts 62°
2026-05-06 22:14 51.91020 18.80682 19081 ft 435 kts 62°
2026-05-06 22:14 51.92468 18.84956 18482 ft 430 kts 62°
2026-05-06 22:14 51.93901 18.89196 17821 ft 428 kts 62°
2026-05-06 22:15 51.95324 18.93411 17173 ft 426 kts 62°
2026-05-06 22:15 51.96736 18.97604 16805 ft 417 kts 63°
2026-05-06 22:15 51.98130 19.01748 16833 ft 420 kts 63°
2026-05-06 22:15 51.99528 19.05909 16828 ft 421 kts 63°
2026-05-06 22:16 52.00923 19.10068 16554 ft 414 kts 63°
2026-05-06 22:16 52.02351 19.14339 14762 ft 442 kts 63°
2026-05-06 22:16 52.03829 19.18759 13900 ft 443 kts 62°
2026-05-06 22:16 52.05270 19.23073 13596 ft 427 kts 63°
2026-05-06 22:17 52.06652 19.27228 13194 ft 412 kts 63°
2026-05-06 22:17 52.07996 19.31271 12868 ft 402 kts 63°
2026-05-06 22:17 52.09312 19.35237 12496 ft 392 kts 63°
2026-05-06 22:17 52.10586 19.39087 12301 ft 379 kts 63°
2026-05-06 22:18 52.11826 19.42826 12023 ft 371 kts 63°
2026-05-06 22:18 52.13031 19.46470 11765 ft 361 kts 63°
2026-05-06 22:18 52.14196 19.50011 11553 ft 348 kts 63°
2026-05-06 22:18 52.15327 19.53441 11348 ft 339 kts 63°
2026-05-06 22:19 52.16428 19.56780 11144 ft 331 kts 63°
2026-05-06 22:19 52.17496 19.60021 10983 ft 321 kts 63°
2026-05-06 22:19 52.18532 19.63193 10882 ft 313 kts 64°
2026-05-06 22:19 52.19526 19.66246 10862 ft 298 kts 64°
2026-05-06 22:20 52.20497 19.69213 10828 ft 297 kts 63°
2026-05-06 22:20 52.21465 19.72169 10800 ft 296 kts 63°
2026-05-06 22:20 52.22431 19.75126 10795 ft 296 kts 63°
2026-05-06 22:20 52.23392 19.78070 10804 ft 295 kts 63°
2026-05-06 22:21 52.24355 19.81029 10791 ft 294 kts 63°
2026-05-06 22:21 52.25312 19.83976 10442 ft 294 kts 63°
2026-05-06 22:21 52.26269 19.86918 10136 ft 293 kts 63°
2026-05-06 22:21 52.27220 19.89846 9831 ft 291 kts 63°
2026-05-06 22:22 52.28165 19.92760 9496 ft 290 kts 63°
2026-05-06 22:22 52.29104 19.95662 9200 ft 288 kts 63°
2026-05-06 22:22 52.30034 19.98535 8886 ft 286 kts 63°
2026-05-06 22:22 52.30960 20.01401 8562 ft 285 kts 63°
2026-05-06 22:23 52.31881 20.04260 8245 ft 284 kts 63°
2026-05-06 22:23 52.32800 20.07108 7969 ft 282 kts 63°
2026-05-06 22:23 52.33708 20.09934 7624 ft 282 kts 63°
2026-05-06 22:23 52.34620 20.12764 7328 ft 280 kts 63°
2026-05-06 22:24 52.35518 20.15564 7089 ft 276 kts 63°
2026-05-06 22:24 52.36389 20.18278 7000 ft 264 kts 63°
2026-05-06 22:24 52.37212 20.20830 6840 ft 251 kts 63°
2026-05-06 22:24 52.38012 20.23338 6630 ft 240 kts 64°
2026-05-06 22:25 52.38768 20.25712 6424 ft 229 kts 63°
2026-05-06 22:25 52.39487 20.27963 6066 ft 218 kts 63°
2026-05-06 22:25 52.40168 20.30096 5719 ft 207 kts 63°
2026-05-06 22:25 52.40813 20.32134 5407 ft 194 kts 63°
2026-05-06 22:26 52.41418 20.34027 5040 ft 182 kts 63°
2026-05-06 22:26 52.41966 20.35825 4658 ft 173 kts 68°
2026-05-06 22:26 52.42347 20.37621 4595 ft 170 kts 75°
2026-05-06 22:26 52.42635 20.39499 4577 ft 170 kts 78°
2026-05-06 22:27 52.42862 20.41402 4525 ft 170 kts 81°
2026-05-06 22:27 52.43103 20.43298 4252 ft 170 kts 73°
2026-05-06 22:27 52.43443 20.45144 3875 ft 168 kts 77°
2026-05-06 22:27 52.43634 20.47004 3528 ft 164 kts 82°
2026-05-06 22:28 52.43784 20.48872 3135 ft 164 kts 84°
2026-05-06 22:28 52.43875 20.50731 2734 ft 165 kts 86°
2026-05-06 22:28 52.43995 20.52602 2336 ft 164 kts 85°
2026-05-06 22:28 52.44077 20.54492 1854 ft 167 kts 85°
2026-05-06 22:29 52.44258 20.56352 1473 ft 162 kts 77°
2026-05-06 22:29 52.44460 20.58157 1107 ft 159 kts 81°
2026-05-06 22:29 52.44614 20.59895 852 ft 150 kts 79°
2026-05-06 22:29 52.44781 20.61521 657 ft 140 kts 82°
2026-05-06 22:30 52.44925 20.63066 418 ft 134 kts 81°
2026-05-06 22:30 52.45055 20.64464 340 ft 89 kts 81°
2026-05-06 22:30 52.45101 20.64962 338 ft 36 kts 81°
2026-05-06 22:30 52.45144 20.65418 344 ft 43 kts 81°
2026-05-06 22:31 52.45178 20.65783 346 ft 34 kts 81°
2026-05-06 22:31 52.45146 20.65998 339 ft 14 kts 148°
2026-05-06 22:31 52.45034 20.66072 341 ft 20 kts 160°
2026-05-06 22:31 52.44986 20.66099 339 ft 5 kts 161°
2026-05-06 22:32 52.44931 20.66129 341 ft 12 kts 161°
2026-05-06 22:32 52.44869 20.66118 337 ft 7 kts 233°
2026-05-06 22:32 52.44854 20.66023 338 ft 12 kts 257°
2026-05-06 22:32 52.44838 20.65849 341 ft 19 kts 265°
2026-05-06 22:33 52.44827 20.65674 339 ft 14 kts 261°
2026-05-06 22:33 52.44814 20.65527 337 ft 11 kts 262°
2026-05-06 22:33 52.44766 20.65426 339 ft 6 kts 202°
2026-05-06 22:33 52.44763 20.65424 337 ft 0 kts 202°